Theta_e
345 345 345 344 343 343 343 344 346 347 347 347 348 347 348 349 351 352 352 349 346 344 346 348 345 341 340 337 335 334 333 331 332 332 331 330 330 333 340 346 350 350 349 348 348 349 349 350 351 351 352 352 353 351 348 343 338 335 333 332 332 330 327 324 322 321 321 321 321 321 322 323 325 330
344 344 344 344 344 344 344 345 346 346 347 347 347 347 348 348 349 351 351 348 345 343 344 347 346 342 340 338 335 334 332 331 332 331 330 329 330 334 341 345 346 346 345 345 348 350 352 353 353 353 352 350 347 345 341 338 335 333 330 328 326 324 323 322 322 321 321 320 321 320 320 321 323 325
344 343 343 343 344 344 345 345 346 346 346 347 347 347 348 348 348 348 348 347 344 340 340 342 343 341 340 337 335 333 331 331 331 330 329 330 331 334 340 343 343 343 345 348 351 353 354 355 354 352 349 345 342 339 337 335 332 329 326 325 324 323 322 322 321 322 321 321 321 320 320 320 321 323
342 341 342 342 342 342 342 343 343 344 345 345 346 348 347 348 347 347 346 345 342 339 338 338 338 339 338 336 334 332 330 330 330 329 329 330 332 334 338 342 344 345 349 351 352 354 355 354 353 350 345 341 338 336 334 332 328 326 324 323 323 322 322 322 322 322 322 321 321 321 320 320 321 322
339 339 339 339 339 339 339 339 339 340 341 342 343 345 346 346 346 346 345 343 339 337 336 335 335 337 336 334 333 330 328 330 330 329 329 329 332 334 338 345 348 348 350 352 352 354 354 352 351 348 342 337 335 333 331 328 326 324 323 323 323 322 322 323 322 322 322 322 322 321 320 320 321 322
338 338 337 337 338 337 337 337 337 338 338 338 339 340 341 342 343 342 342 341 338 335 335 335 334 335 334 333 333 330 329 330 329 328 328 329 333 335 339 348 351 349 350 352 353 354 352 350 348 342 337 334 332 330 328 326 324 324 323 323 323 323 323 323 323 322 322 322 322 321 320 320 321 322
337 337 336 336 337 337 337 337 337 336 336 336 336 336 336 337 337 338 338 337 336 335 335 334 334 334 334 333 332 330 328 330 329 329 329 329 335 337 340 348 351 349 350 352 353 354 351 347 342 337 333 331 330 329 327 325 324 323 323 323 323 324 323 323 323 322 322 322 322 321 321 320 321 322
336 336 337 337 337 337 337 337 337 337 336 336 336 336 335 336 336 336 335 335 336 335 334 333 332 332 333 333 332 330 328 329 330 330 329 329 335 340 341 346 349 347 347 351 353 354 352 348 343 337 334 331 331 331 327 324 324 324 323 323 324 324 324 323 323 323 322 322 322 321 320 320 321 323
333 333 334 335 337 337 337 337 337 337 337 337 336 335 335 335 335 335 335 335 335 335 333 332 331 331 332 332 332 331 329 328 328 330 330 329 332 338 341 344 347 347 346 349 353 354 352 350 347 343 339 336 334 332 327 324 324 324 323 323 323 324 324 324 323 323 323 322 322 322 320 320 320 323
329 330 331 332 333 335 335 336 337 337 337 337 336 335 335 335 335 335 335 335 335 334 333 332 331 331 331 331 332 331 330 328 328 329 330 330 329 333 338 340 345 349 350 350 352 354 353 351 350 348 345 341 337 332 328 325 323 324 323 323 324 324 324 324 324 324 323 322 322 321 320 320 321 322
325 327 329 331 331 332 332 333 335 336 337 336 336 335 335 334 335 334 334 334 334 333 333 332 332 331 330 330 329 330 330 328 329 329 329 330 330 330 334 337 341 347 350 350 350 351 352 352 351 351 350 346 341 335 329 326 324 323 323 323 323 324 323 324 324 324 323 322 322 321 320 320 320 321
325 325 326 327 330 332 332 332 332 333 334 335 336 336 335 335 334 333 333 333 333 332 332 330 330 329 329 329 328 328 328 329 332 332 329 328 329 329 331 336 341 344 348 351 352 349 349 351 351 351 351 349 346 340 331 326 324 323 323 323 323 323 323 323 324 323 323 322 321 321 320 319 320 322
326 325 324 325 327 329 332 333 333 332 333 333 334 335 335 334 334 333 332 332 331 331 331 330 329 328 327 328 327 327 328 331 333 335 333 330 329 328 329 333 338 342 347 353 353 349 347 350 352 351 352 352 350 345 335 327 325 324 323 323 323 323 323 323 323 323 323 322 321 320 319 319 320 322
325 325 325 324 324 326 329 332 333 333 332 333 333 333 334 334 334 334 333 332 332 332 331 330 328 328 327 326 326 327 329 333 336 338 338 336 332 329 329 332 335 338 343 349 351 348 346 349 352 352 352 353 351 347 339 329 325 324 323 323 322 322 323 322 323 323 322 321 321 319 319 319 319 321
325 325 324 324 325 324 326 329 333 334 333 333 332 333 334 334 334 334 333 333 333 332 331 330 329 330 328 325 326 329 332 335 338 340 340 339 338 334 333 334 334 335 340 345 348 348 344 345 350 351 352 354 352 349 343 332 326 324 323 323 322 322 322 322 323 323 321 321 321 319 319 319 319 321
324 324 324 324 324 324 325 327 331 334 334 334 332 332 333 333 333 334 334 333 333 332 331 330 330 330 329 328 328 331 336 339 340 341 340 340 341 340 337 337 336 334 336 339 344 347 343 341 347 350 351 353 353 351 346 336 327 324 323 323 322 322 322 323 323 322 321 320 320 319 319 319 319 321
325 325 325 325 325 325 326 328 330 334 334 334 334 334 333 333 332 333 333 333 333 332 332 331 330 330 330 330 329 332 336 339 339 341 343 342 342 342 340 339 337 335 334 335 340 345 344 341 344 348 350 353 353 351 347 339 328 324 323 322 322 322 322 323 323 321 320 319 319 319 318 319 319 320
327 327 327 327 327 327 329 330 331 334 335 335 336 336 335 335 333 332 333 332 332 332 332 332 330 329 331 331 330 332 336 337 339 341 344 345 344 344 342 339 336 334 334 336 337 342 346 344 343 347 349 352 353 351 348 340 329 323 323 322 322 322 323 323 323 320 320 319 318 318 318 318 319 320
330 330 330 331 331 331 331 332 332 334 336 337 338 338 338 337 335 334 333 332 332 332 332 333 332 331 332 332 332 334 336 338 340 340 343 344 343 343 342 338 334 332 334 336 337 340 346 347 345 347 349 351 353 352 348 340 329 323 323 322 322 323 323 323 322 320 319 319 318 318 318 318 319 320
333 333 333 333 333 333 333 334 334 335 337 339 340 340 339 339 338 337 335 333 333 333 333 333 333 333 334 334 334 335 336 339 341 340 340 340 339 340 340 338 336 336 336 337 335 339 345 347 346 348 350 351 352 352 349 341 328 323 323 322 322 323 323 322 322 320 319 318 318 318 318 318 319 319
336 335 335 335 335 335 335 336 335 336 338 340 342 342 341 341 339 338 337 336 335 335 334 334 333 333 333 334 335 335 336 338 340 341 341 338 338 341 342 341 343 344 341 338 334 336 342 345 346 349 350 351 352 352 349 340 329 323 323 322 323 324 323 323 321 320 319 318 318 318 317 318 319 319
339 337 337 337 337 336 337 337 336 338 339 340 341 343 343 343 341 338 338 338 337 336 335 334 334 333 333 334 334 335 336 338 340 341 341 340 342 345 345 346 346 344 340 338 334 337 343 346 346 348 350 351 352 351 349 341 330 323 322 323 323 323 323 322 321 320 320 318 318 318 318 318 318 318
341 339 338 338 338 337 338 338 338 338 340 341 341 342 344 345 342 338 337 338 338 338 336 335 335 335 335 335 334 335 336 338 340 342 341 341 344 345 346 348 347 346 344 342 339 342 347 349 348 348 351 352 350 351 350 343 330 324 322 322 323 322 322 321 320 320 320 319 319 319 319 318 318 318
342 340 339 339 338 339 338 338 339 339 340 340 341 342 344 344 341 338 338 338 338 339 338 337 337 336 335 335 335 335 335 336 338 340 341 343 344 344 344 346 347 348 347 343 341 345 349 350 349 348 351 352 350 350 351 344 330 323 323 322 322 322 321 320 320 320 320 319 320 320 320 319 319 318
344 341 340 339 339 339 338 339 339 339 339 339 340 341 342 341 340 340 340 340 339 340 340 340 339 337 336 336 335 334 334 334 335 338 340 342 343 343 342 344 347 348 347 343 344 347 348 349 350 349 351 353 351 350 349 342 330 323 322 322 322 321 320 319 319 319 320 320 320 321 320 321 320 320
346 341 339 339 338 338 339 339 340 340 340 340 341 340 339 339 342 342 342 342 341 342 343 343 341 339 339 338 337 336 334 334 335 337 339 341 341 340 340 341 343 345 346 345 347 349 349 350 350 350 351 352 351 350 348 338 328 323 322 322 322 321 320 319 319 320 320 320 321 321 321 321 321 320
346 342 340 339 339 339 339 340 339 341 342 342 341 339 339 341 343 344 345 345 344 345 347 347 345 342 341 340 339 338 336 336 339 341 342 342 341 338 338 339 339 341 344 345 347 349 350 351 350 350 352 352 350 349 344 334 326 323 322 322 322 322 321 320 320 320 321 321 321 321 322 321 321 321
351 346 342 340 340 340 340 340 341 342 343 343 342 342 343 344 346 347 348 348 348 348 349 349 348 344 341 341 341 340 340 341 343 344 344 343 341 338 337 337 338 341 343 344 346 349 351 352 350 350 352 351 350 348 341 331 324 323 323 322 322 321 321 320 320 320 321 322 321 322 322 321 321 321
355 351 346 343 342 342 342 342 343 343 344 345 345 346 347 348 349 349 350 350 351 352 352 351 349 346 343 342 343 345 345 346 346 345 344 342 340 339 338 337 338 341 343 344 347 350 351 351 350 350 351 351 351 349 342 330 323 323 323 322 322 321 321 321 321 321 321 322 322 322 322 322 321 321
358 356 352 349 346 344 344 344 344 344 345 345 347 349 350 350 350 350 351 351 352 352 352 352 351 348 346 346 346 348 348 347 347 346 345 343 341 341 339 339 340 340 342 345 349 351 351 350 349 349 351 351 352 350 341 329 323 323 323 323 322 321 321 321 321 321 322 322 322 322 321 322 322 322
359 358 356 353 350 348 347 347 347 347 348 348 349 350 351 351 350 350 351 351 352 353 353 353 352 351 351 350 349 350 349 348 348 348 346 345 344 343 341 342 342 342 344 347 350 350 350 350 348 348 350 351 352 350 340 328 323 323 323 322 322 321 321 321 322 322 322 322 322 322 322 322 322 322
360 359 357 355 354 352 350 350 350 350 350 350 350 350 350 351 351 351 351 352 352 353 353 353 352 352 352 351 350 350 351 351 350 350 349 347 347 345 344 344 345 346 347 349 350 347 348 347 347 348 350 350 350 347 337 327 323 323 323 323 322 322 322 322 322 322 323 322 323 322 322 322 322 322
359 359 358 357 355 354 353 352 351 351 351 351 351 350 351 351 351 351 352 352 352 353 353 353 352 352 352 351 351 351 352 354 352 352 351 350 348 347 346 346 348 349 349 350 349 347 347 347 348 349 350 348 346 340 332 325 323 323 323 323 323 323 323 322 323 323 323 323 324 323 324 323 323 323
358 358 358 357 356 355 355 353 353 352 351 351 351 350 350 350 351 351 351 351 351 352 352 352 353 352 352 353 352 352 353 354 353 352 351 351 351 349 347 348 350 352 351 351 350 349 349 348 348 348 348 347 345 338 330 325 324 323 323 323 323 323 323 323 323 323 324 324 324 324 324 324 324 324
358 358 358 357 357 356 356 355 354 353 353 352 351 351 351 350 350 351 351 351 351 350 350 351 352 353 353 354 353 353 353 354 353 352 352 352 352 351 349 349 351 353 353 351 351 351 350 349 348 347 347 346 342 336 330 326 324 323 324 323 323 323 323 323 323 324 324 324 324 324 324 324 324 324
358 358 358 357 357 357 356 356 355 354 354 353 353 352 352 351 351 351 351 351 351 351 351 351 352 353 353 353 353 352 353 353 352 353 353 353 354 353 351 350 351 353 354 353 352 352 352 350 348 346 346 345 339 334 330 328 324 323 323 323 323 323 323 324 324 324 324 324 324 324 324 324 324 324
358 358 358 357 357 356 356 356 355 355 355 355 354 354 353 353 352 351 350 351 351 352 352 353 352 352 353 354 354 353 353 353 353 354 354 355 355 354 353 351 350 352 354 353 352 353 353 351 349 347 346 344 337 332 330 329 325 324 324 323 323 323 324 324 324 324 324 324 324 324 324 324 325 325
358 358 358 358 358 357 357 356 356 356 356 355 355 354 354 353 353 352 350 351 351 351 352 352 352 352 352 354 354 353 353 354 355 355 356 356 356 355 354 351 349 350 353 354 354 354 354 351 349 348 346 342 336 332 331 330 326 324 324 324 324 324 324 324 324 324 325 325 324 324 325 324 324 325
359 359 359 359 358 358 358 358 357 357 356 356 355 355 354 354 353 352 351 352 352 351 351 351 351 352 353 353 353 354 355 355 356 356 357 357 356 355 354 352 350 350 352 354 354 354 353 350 348 347 347 343 339 336 333 330 327 325 324 324 324 324 324 324 324 325 325 325 325 325 325 325 325 325
359 359 359 359 360 359 359 359 359 358 358 357 355 355 355 354 354 354 354 354 353 352 351 351 352 352 352 353 353 354 355 355 356 357 357 357 356 355 354 353 353 352 353 353 353 352 353 351 349 349 347 343 338 335 331 328 326 325 325 325 325 325 325 325 325 325 325 325 325 325 325 325 325 325
360 359 360 360 360 360 359 359 359 360 359 358 357 356 356 355 355 355 355 355 355 354 354 353 353 353 353 354 353 354 355 356 356 356 357 356 355 355 354 354 353 353 353 353 352 352 353 353 351 348 343 337 334 332 330 328 327 325 325 325 325 325 325 325 325 325 325 325 325 325 326 325 326 326
360 360 361 360 360 360 360 359 359 360 360 360 359 358 358 357 357 356 356 356 356 356 355 355 354 354 354 354 354 355 356 357 356 356 357 356 354 353 353 353 353 352 353 353 352 352 352 351 348 343 338 333 332 331 330 328 327 326 325 326 326 325 325 325 325 325 325 325 325 325 325 326 326 326
361 360 361 360 361 361 360 360 360 360 360 360 361 360 359 359 358 358 358 358 357 357 356 356 355 355 354 354 356 356 356 357 356 356 356 355 354 353 353 353 353 352 351 352 353 352 350 347 344 340 334 331 330 330 328 327 327 327 327 328 328 327 326 325 326 326 325 325 325 326 326 326 326 326
361 360 361 361 360 360 360 360 360 360 360 360 361 361 360 360 359 359 359 359 358 357 357 356 356 355 355 355 356 356 356 357 356 355 355 354 354 353 353 353 353 352 350 350 350 349 346 341 338 334 330 328 327 327 327 327 328 328 329 330 329 328 327 326 326 326 326 326 326 326 326 326 326 326
361 361 360 361 360 361 361 360 360 360 360 359 360 360 360 360 360 360 360 359 359 358 357 357 357 357 356 356 356 356 356 355 354 354 354 353 353 353 354 353 353 352 351 349 347 345 341 336 331 328 327 327 328 328 327 327 328 329 330 330 328 327 327 326 326 327 327 327 327 327 326 327 326 327
Wind_Speed
4 4 4 4 5 6 7 7 7 7 7 8 8 9 9 10 10 10 10 10 7 6 7 7 6 6 6 7 8 10 12 13 14 15 17 19 19 18 17 16 15 16 17 18 19 19 20 19 19 19 19 19 19 20 20 20 20 21 22 24 25 26 25 24 23 22 22 22 21 20 18 17 16 16
4 4 4 4 5 7 8 9 9 10 10 10 10 10 10 9 9 9 11 11 8 7 8 8 7 7 6 7 7 9 11 12 13 15 17 18 18 17 15 15 16 18 20 20 20 20 19 18 18 18 18 19 19 19 19 19 20 22 23 25 25 25 25 24 24 26 26 26 25 23 22 20 17 15
5 5 5 5 6 7 8 9 10 11 12 11 10 10 10 10 10 9 11 13 10 9 9 8 8 8 6 7 8 9 10 11 13 15 17 18 18 16 14 15 17 19 20 20 19 19 19 18 18 19 19 19 19 19 19 20 21 22 24 24 24 24 25 26 28 29 29 28 27 26 24 22 19 16
8 7 7 7 7 7 8 8 9 10 11 11 10 10 10 10 10 10 11 13 13 11 10 8 8 9 7 7 8 8 9 11 14 16 17 18 18 16 14 14 17 19 19 19 19 19 20 20 19 19 19 20 20 20 20 21 22 23 23 23 23 25 27 29 30 30 30 29 28 27 26 23 20 16
9 8 8 8 8 8 9 8 9 9 9 10 10 9 10 10 10 11 12 14 15 13 10 8 8 8 7 8 8 8 9 11 14 16 17 17 17 16 14 12 15 18 19 19 20 20 20 20 19 19 20 20 20 20 21 21 22 22 22 22 23 25 28 30 31 31 31 30 29 28 27 24 21 17
9 9 9 9 8 9 9 9 9 9 9 10 10 10 10 10 10 11 12 14 15 14 12 10 9 8 7 8 9 9 10 11 14 16 17 17 16 15 14 11 14 18 20 20 20 20 20 19 18 18 19 19 20 20 21 22 22 21 20 21 23 26 28 31 31 31 31 31 30 28 27 25 22 18
10 11 10 10 9 10 10 10 10 10 10 10 10 10 10 11 11 11 12 13 14 15 14 12 11 10 9 9 9 9 10 11 14 15 16 16 15 15 15 12 14 18 20 19 19 20 19 18 17 17 17 18 19 20 21 21 21 20 19 21 23 26 28 30 31 32 31 31 30 29 28 26 23 19
12 12 12 11 11 11 11 11 11 11 12 12 11 11 11 11 11 11 11 12 13 15 16 14 13 12 11 10 9 10 10 10 12 14 15 15 13 13 14 13 15 19 19 18 18 19 18 17 16 16 17 17 18 20 21 21 20 20 20 21 23 25 28 30 31 32 31 31 31 29 28 26 24 19
14 15 14 13 13 13 13 12 12 12 12 13 13 12 12 11 11 12 12 13 13 15 17 16 15 13 13 11 10 10 10 11 12 13 14 13 12 12 13 13 15 17 19 18 18 18 18 16 16 17 17 18 19 21 21 21 20 20 20 21 23 25 28 30 31 32 32 31 31 30 28 27 24 19
15 16 16 16 15 15 15 14 13 13 13 13 14 14 13 12 12 13 13 14 15 16 17 17 17 15 14 13 12 11 11 11 12 14 14 14 13 11 11 13 13 14 17 19 18 18 19 18 17 18 19 20 21 22 22 21 21 20 21 22 23 25 28 30 31 32 32 32 32 31 29 27 24 20
16 16 16 17 17 17 17 16 16 15 15 15 15 15 14 14 14 14 14 15 15 16 17 18 18 17 16 15 14 13 12 11 12 14 15 15 15 13 11 11 12 12 15 19 19 19 19 19 19 19 20 21 22 22 23 22 21 21 21 22 24 26 28 30 32 32 33 32 32 31 29 28 25 20
19 18 17 17 18 18 18 18 18 17 17 17 17 16 16 15 15 15 15 16 16 17 18 19 19 18 18 17 16 15 14 12 11 12 14 15 16 16 13 12 11 12 14 16 18 20 21 21 21 21 21 22 22 23 23 23 22 22 22 23 25 27 29 31 32 33 33 33 32 32 30 28 26 21
22 21 20 19 19 19 18 18 19 19 19 19 19 18 17 17 17 17 17 17 18 18 19 19 19 19 20 18 17 17 16 13 11 12 13 14 15 16 15 13 12 12 12 11 14 20 22 21 21 22 22 22 22 23 24 24 23 22 22 23 26 28 30 32 33 32 32 33 32 32 30 28 26 22
24 23 23 22 21 20 19 20 20 20 21 21 21 20 20 20 19 19 20 20 20 20 21 21 20 20 21 19 18 18 17 15 13 12 12 13 14 16 16 14 13 13 13 13 15 19 21 20 21 22 23 22 22 22 24 24 23 23 23 24 26 29 31 32 33 32 32 32 32 32 30 28 26 22
26 26 25 25 24 23 21 21 22 22 22 22 23 23 22 23 22 23 23 23 23 22 23 22 21 21 21 20 18 18 17 16 15 14 13 13 14 16 17 16 16 14 14 16 18 20 21 21 21 22 23 23 23 22 23 24 24 23 23 24 26 29 31 33 33 32 31 31 32 31 30 27 26 22
28 27 27 27 26 25 24 22 23 23 24 24 24 24 24 24 25 25 25 25 25 24 24 24 23 23 22 21 19 17 17 17 17 16 16 15 16 17 17 18 18 17 16 18 19 20 21 22 21 23 24 24 23 22 23 24 24 23 23 24 27 29 31 32 32 31 30 31 31 30 29 27 25 22
30 29 29 28 28 27 26 25 24 25 25 25 26 26 26 26 26 26 26 26 26 26 26 26 26 25 23 21 20 18 17 18 19 19 18 18 18 19 19 18 18 18 18 18 19 20 20 21 22 23 24 24 23 22 22 24 24 23 23 24 27 29 31 31 31 30 30 30 30 29 28 26 24 22
31 30 30 30 29 29 28 27 26 26 27 27 27 27 27 27 28 28 28 28 28 27 27 28 28 26 24 23 22 20 19 20 21 21 20 20 20 21 21 20 20 20 18 18 20 20 19 20 21 23 24 23 22 22 22 23 23 22 22 24 26 29 30 30 30 29 29 29 29 28 27 26 24 21
32 32 31 31 30 29 29 29 28 27 27 28 28 28 28 28 28 29 30 29 29 28 28 28 28 27 25 24 23 22 22 22 22 22 23 23 23 23 23 23 22 22 20 18 19 20 18 18 20 22 23 22 21 21 22 22 22 21 22 24 26 28 29 29 29 28 28 28 27 27 26 25 23 21
33 32 32 32 31 30 30 30 29 28 27 28 29 29 28 28 29 30 31 30 30 29 29 28 28 27 26 26 24 24 24 23 23 24 24 25 25 24 24 24 23 22 21 19 19 19 18 18 18 20 21 21 20 21 22 21 21 21 22 23 25 27 27 27 27 27 26 26 26 25 25 24 23 21
33 32 32 31 31 30 31 30 29 28 27 28 29 29 29 29 30 31 32 31 31 30 30 29 29 28 28 27 26 25 24 24 23 23 24 25 24 22 22 22 20 19 20 21 20 19 18 17 17 19 21 20 18 20 21 20 20 20 21 23 24 25 25 26 26 26 25 24 24 24 23 23 22 21
34 33 32 31 31 31 31 31 30 29 28 28 30 30 29 29 30 32 32 31 31 31 31 30 30 30 29 28 27 26 24 23 22 23 24 23 21 19 19 19 19 20 21 22 21 18 16 16 16 18 20 19 18 18 19 20 20 20 20 22 23 23 23 23 23 23 23 23 22 22 22 22 21 20
34 34 33 32 31 32 32 31 30 30 29 29 31 31 29 29 31 32 31 30 30 31 31 31 31 30 29 28 27 26 25 23 22 23 23 21 20 20 19 18 19 20 19 20 19 16 13 15 17 17 17 16 16 18 19 20 19 19 19 20 21 21 21 20 20 21 21 21 20 20 21 21 20 20
35 34 34 33 33 33 33 32 31 31 31 31 31 31 30 32 32 32 30 30 30 30 30 29 29 29 29 28 28 28 26 25 24 23 22 22 21 22 21 20 20 19 19 20 19 16 15 16 17 17 16 14 15 18 20 20 19 17 17 18 18 18 18 18 18 18 18 19 19 19 20 20 20 20
35 35 34 34 34 33 33 32 31 31 31 31 31 32 33 33 31 29 29 29 29 28 29 28 28 28 29 28 28 28 28 27 26 24 23 23 23 23 23 21 20 20 20 20 19 17 18 19 18 18 17 15 16 18 19 19 19 16 16 17 17 16 16 16 16 16 16 17 18 19 19 20 20 20
35 36 36 35 34 33 33 32 31 31 30 30 31 32 33 32 29 27 27 27 27 27 27 26 26 27 28 28 28 29 29 29 28 26 25 24 24 24 24 22 22 22 21 20 19 18 19 21 20 19 18 16 16 18 18 18 18 15 14 15 16 15 14 14 14 14 15 15 16 17 18 20 20 21
35 35 36 35 33 32 32 31 31 30 29 30 32 32 31 29 26 24 24 24 26 26 25 25 26 27 28 29 29 29 29 29 28 26 24 24 24 25 25 25 25 24 23 22 21 20 20 22 21 19 18 18 18 18 17 16 16 14 13 14 14 14 13 12 12 12 13 14 15 16 18 20 20 21
33 34 35 34 32 31 31 31 30 29 29 30 31 30 28 26 24 23 23 24 25 25 25 26 27 28 29 30 30 29 29 28 26 25 24 25 26 26 26 27 27 26 25 24 23 21 21 23 21 18 18 19 19 17 16 15 15 13 12 12 12 12 12 12 11 10 11 12 14 16 18 19 20 20
32 32 31 31 30 30 30 29 29 29 29 30 29 27 25 24 24 25 26 26 25 26 27 27 29 30 30 31 30 29 27 27 27 26 26 27 28 27 27 28 29 29 27 25 22 21 22 23 21 19 19 20 19 17 16 15 14 13 12 11 11 11 11 11 10 10 10 11 12 13 15 17 18 19
30 29 28 28 28 29 29 30 30 31 30 29 28 27 26 26 27 28 28 28 28 28 28 29 30 30 30 31 30 29 28 29 28 28 28 28 28 28 28 28 29 30 27 24 22 22 23 23 21 20 21 21 19 18 16 15 13 12 11 11 10 9 10 10 10 9 10 10 10 11 12 14 16 18
30 29 28 27 27 28 29 31 31 31 30 30 30 30 29 29 30 30 30 30 29 29 29 29 31 31 31 31 31 30 30 30 29 28 28 28 28 28 28 27 28 29 27 23 23 23 24 23 22 22 22 22 21 19 17 15 13 11 11 10 9 9 9 9 9 9 9 9 10 10 11 12 14 16
28 27 27 28 29 30 32 33 34 34 33 33 33 33 32 32 32 32 32 31 31 31 30 31 32 33 32 32 32 31 31 31 30 29 29 29 28 28 28 27 27 28 26 24 24 24 23 23 23 23 23 22 21 19 17 15 13 12 11 10 10 9 9 8 7 7 8 8 9 10 11 12 13 14
26 28 29 31 33 34 35 36 37 37 37 36 35 35 34 34 34 34 34 34 34 33 32 31 32 33 33 33 33 33 32 31 30 30 30 29 28 28 28 28 28 27 26 25 24 23 23 24 24 23 22 21 20 18 17 15 14 13 12 12 11 10 10 8 7 6 6 7 8 9 10 11 12 13
27 30 32 34 36 37 38 38 39 39 38 37 37 36 36 35 35 35 36 35 34 34 32 32 32 33 33 33 33 33 32 30 30 31 31 29 29 29 28 29 28 27 26 25 24 23 25 26 25 22 20 20 20 19 17 16 15 14 13 13 13 12 11 9 8 7 6 6 8 9 10 11 11 12
28 30 31 34 36 39 40 40 40 40 39 38 37 36 36 36 35 35 36 34 33 33 33 33 33 33 33 34 34 34 33 31 31 32 32 31 30 29 29 29 28 27 26 24 24 25 27 27 25 23 21 20 20 20 20 18 17 15 14 14 13 12 11 10 9 8 7 7 7 7 9 11 12 12
29 30 31 33 34 37 40 40 39 39 39 39 38 37 36 36 36 35 35 33 32 32 32 33 33 33 34 34 34 34 33 33 33 33 33 32 30 29 29 29 28 27 26 25 27 28 28 26 26 25 23 22 22 22 21 19 17 15 15 15 15 13 12 10 9 8 7 7 7 7 7 9 11 12
31 31 32 33 33 36 38 37 37 37 37 37 38 38 37 36 35 35 33 31 31 32 32 33 33 33 33 33 33 32 32 33 33 33 34 33 31 30 29 29 29 30 28 28 30 31 29 28 28 27 26 26 25 22 20 19 17 16 16 16 16 14 13 11 10 9 8 8 8 8 8 9 10 11
32 32 32 32 33 34 35 34 34 34 34 35 37 37 36 36 35 34 32 31 32 33 33 34 34 33 32 31 31 30 31 31 32 33 33 33 32 31 30 30 32 33 31 31 33 34 32 31 30 29 28 29 27 23 20 19 18 17 17 17 16 16 14 12 11 10 9 9 9 10 10 10 10 11
34 33 32 32 32 32 32 31 31 31 31 32 34 35 36 35 35 34 33 33 34 35 35 35 34 32 31 30 30 30 31 32 34 34 33 32 31 31 31 32 32 33 33 34 35 35 34 34 33 31 31 33 30 25 21 19 17 17 17 17 17 17 15 13 12 11 10 10 11 12 12 12 12 12
35 34 33 33 32 32 31 30 30 30 30 31 33 34 35 35 35 35 34 34 35 36 36 35 34 32 32 32 32 32 33 34 35 34 32 32 31 31 33 34 32 32 34 37 37 37 37 37 36 33 32 31 28 23 20 18 18 18 18 18 18 17 16 15 13 12 12 12 12 13 14 14 14 14
36 35 35 34 34 34 33 31 30 29 29 31 33 33 34 35 35 35 35 35 36 37 37 36 35 35 34 34 34 34 34 35 34 33 32 32 32 32 34 35 33 32 33 35 37 39 39 35 32 30 29 27 24 22 20 20 20 19 19 19 19 18 17 16 15 14 15 15 14 15 16 16 16 16
37 36 36 36 35 35 35 33 32 30 30 30 31 33 33 33 34 34 34 35 37 39 39 38 38 37 36 36 36 36 36 35 34 33 31 31 31 32 33 35 35 34 33 35 38 39 35 28 26 27 27 26 25 23 22 22 21 20 20 20 20 19 18 18 17 17 17 17 17 18 18 18 18 18
37 36 36 36 36 35 35 34 33 33 32 31 31 32 32 33 33 34 34 35 38 40 41 41 39 37 37 37 36 36 36 36 34 32 30 31 31 31 32 34 35 33 31 32 36 35 29 24 25 27 27 26 25 23 21 21 22 21 20 21 21 21 19 18 18 18 19 19 20 20 20 20 20 18
36 36 36 36 35 34 35 35 35 34 34 33 32 32 33 34 35 35 35 37 38 39 40 41 40 38 37 37 37 37 37 35 33 30 30 31 31 31 31 33 34 32 30 31 33 30 24 23 25 26 26 26 24 22 21 21 21 20 20 22 23 22 21 20 20 21 21 22 22 22 23 23 22 21
34 35 35 35 35 34 35 36 36 36 35 34 34 34 35 36 37 37 37 39 39 39 41 43 42 40 39 39 38 36 36 34 31 28 28 30 31 32 32 33 32 32 33 32 30 25 22 22 24 26 26 24 21 19 19 20 20 20 21 23 24 23 21 21 22 23 24 24 24 24 24 24 23 22
Wind_Direction
255 263 266 258 249 245 246 252 264 277 289 298 306 315 324 332 338 340 341 347 358 5 6 359 347 350 354 348 346 345 345 344 342 341 340 341 343 342 339 335 331 327 324 325 330 335 336 335 334 335 337 339 340 340 340 340 341 341 340 337 335 335 337 343 351 358 0 358 353 346 340 333 322 312
245 253 255 254 252 248 250 256 263 273 281 289 295 300 308 317 325 328 326 327 335 342 346 346 338 338 346 347 344 346 347 343 339 339 339 341 343 341 335 331 326 323 325 331 338 343 346 347 347 348 349 348 348 347 346 345 344 342 340 337 336 339 344 351 359 4 5 2 357 350 345 343 337 324
233 240 243 246 248 250 253 258 263 269 275 281 288 291 297 305 311 316 316 315 318 331 339 338 332 329 332 338 340 342 346 342 337 339 340 342 343 340 334 329 324 325 330 338 344 349 353 356 354 353 354 353 352 350 348 347 344 342 340 338 340 345 350 356 1 4 5 2 358 353 347 344 341 336
237 240 241 243 245 250 255 257 262 266 269 275 281 286 292 298 302 306 308 308 311 323 332 331 328 324 319 326 333 335 341 340 337 340 341 342 342 340 337 331 325 329 337 342 346 351 355 357 354 354 355 354 352 350 348 346 343 341 341 341 344 348 353 358 1 2 3 2 360 353 347 345 342 340
247 247 247 248 247 250 254 257 261 264 267 272 276 281 287 291 296 300 302 305 308 316 323 324 323 319 314 321 326 330 337 337 336 339 341 344 342 340 343 336 326 333 341 342 345 351 355 356 354 353 353 351 349 349 346 345 343 342 342 343 346 350 355 358 359 0 3 3 0 354 348 346 345 343
255 255 252 253 253 253 255 256 260 263 266 270 274 279 283 285 289 293 295 300 304 309 315 319 320 317 315 321 324 327 334 336 336 337 341 347 345 340 345 340 325 333 342 341 345 352 355 355 355 353 351 346 346 347 346 345 344 344 344 345 348 351 355 356 356 359 2 3 1 356 350 347 346 345
259 259 257 256 257 258 258 258 259 261 264 268 271 274 277 279 282 285 289 294 298 303 307 311 315 315 315 321 322 322 330 335 337 338 340 347 347 340 342 339 325 331 339 339 342 351 354 355 357 355 350 344 344 347 348 346 345 345 346 347 349 352 354 354 355 357 1 3 2 358 352 348 348 347
260 261 261 260 261 261 261 260 259 260 263 267 270 271 272 273 276 279 282 287 292 296 300 304 308 309 310 316 317 316 320 327 334 337 338 342 346 339 336 335 326 327 334 337 339 346 351 353 355 354 349 344 344 348 349 348 347 346 347 349 350 352 352 352 353 355 359 3 3 360 354 350 349 348
262 262 262 261 261 262 262 262 261 261 262 264 266 269 270 269 271 274 276 280 284 287 293 298 302 305 306 308 310 309 310 315 323 329 332 335 338 335 332 332 327 324 329 334 335 338 343 348 349 348 346 343 344 348 350 349 348 347 347 349 350 351 351 351 352 354 358 2 4 2 357 352 350 350
264 264 264 262 260 260 261 262 262 263 263 263 264 265 266 266 267 270 272 275 277 281 287 292 296 300 301 301 302 302 303 308 315 320 324 327 328 329 328 327 325 322 323 327 328 330 335 341 343 342 341 341 343 347 349 349 348 348 347 347 349 351 351 350 351 353 357 1 4 3 359 354 351 350
265 265 264 264 261 260 260 260 260 261 262 263 263 262 263 263 264 268 272 273 275 278 282 287 291 294 295 295 296 297 297 302 307 311 315 319 322 326 328 324 320 316 316 319 322 326 332 335 336 336 337 340 343 344 348 349 347 347 346 346 349 351 350 349 350 353 356 359 3 4 0 355 353 351
266 265 264 263 261 259 259 259 259 259 259 260 261 261 261 262 263 266 269 271 274 277 280 283 286 288 289 290 291 293 293 295 300 302 305 309 313 319 325 325 320 316 316 319 322 326 329 330 331 332 334 338 341 343 345 347 346 345 346 346 348 350 349 348 349 352 355 358 1 3 2 357 354 352
265 265 264 262 260 259 258 257 256 256 256 257 258 259 259 260 261 263 265 268 272 275 278 280 282 284 286 286 287 288 287 288 293 295 297 300 304 309 317 320 317 315 317 317 317 320 324 326 327 327 330 334 339 341 343 345 345 344 345 346 347 348 347 347 349 352 355 358 0 3 2 359 354 353
263 263 263 263 262 261 258 255 254 254 255 255 254 255 256 257 259 261 264 266 270 273 275 277 279 282 283 284 284 283 283 284 289 291 293 297 300 303 309 313 311 311 313 313 311 313 318 322 323 323 326 330 335 339 342 344 344 343 343 345 346 347 347 346 348 352 355 358 0 2 2 360 355 354
262 262 263 263 264 264 261 258 254 252 253 254 254 253 253 254 257 259 262 265 268 270 271 273 276 279 281 283 281 279 281 284 285 287 288 292 297 300 303 308 310 310 311 311 310 310 313 318 321 321 323 328 332 337 341 342 342 342 342 343 345 345 346 346 348 351 355 358 0 1 1 1 357 356
261 261 262 263 264 264 264 262 258 253 251 252 253 253 252 253 254 256 259 262 265 267 268 270 272 276 280 283 281 278 280 281 282 284 286 288 292 295 297 302 307 307 307 308 306 306 309 314 318 319 321 326 329 334 339 340 340 341 341 342 344 345 345 346 347 351 354 358 0 0 0 1 359 358
260 260 261 262 262 263 264 263 259 255 253 252 252 252 252 252 253 254 256 258 260 262 264 266 269 274 278 280 279 278 277 278 280 283 286 287 289 292 295 298 301 302 303 302 300 299 302 309 314 316 320 324 326 329 336 338 338 339 340 341 343 343 344 346 348 351 354 358 0 -0 360 1 1 359
258 259 259 260 260 261 262 260 258 255 253 252 251 252 252 253 254 255 255 256 257 258 260 263 267 271 274 275 277 278 277 276 278 280 283 286 287 289 292 295 296 298 299 298 296 296 297 303 309 313 316 321 324 325 332 336 336 337 339 341 342 343 344 347 348 351 355 358 0 1 359 1 3 2
256 256 257 258 258 258 258 257 256 254 253 253 252 252 253 254 255 255 256 256 257 258 260 262 265 268 270 272 273 275 276 277 277 278 279 282 283 286 289 292 294 296 297 295 294 294 293 296 304 309 312 317 320 321 328 333 334 336 338 340 341 342 344 347 348 351 355 358 1 2 1 1 4 6
252 253 254 255 255 254 255 255 253 252 252 252 253 253 253 254 255 256 256 256 257 258 260 261 263 265 267 269 270 271 273 275 277 278 279 280 282 285 288 290 293 295 297 296 293 292 290 292 300 304 307 313 316 317 324 331 332 334 337 338 341 342 344 347 348 350 355 360 2 3 3 3 5 8
250 250 250 251 252 251 251 252 251 250 250 251 252 253 253 254 255 256 258 259 258 258 259 261 262 263 264 266 267 267 269 271 274 276 278 281 285 287 287 288 289 291 293 293 293 292 287 288 298 302 303 309 312 313 321 329 331 333 335 337 339 342 343 345 346 349 354 360 4 6 7 7 7 9
249 248 248 248 248 249 250 251 250 249 248 249 251 252 253 254 255 256 258 261 262 261 260 261 262 263 264 265 266 267 267 267 267 270 274 279 282 281 280 283 286 288 290 292 295 294 287 288 296 300 302 306 308 310 318 325 329 331 332 334 337 339 342 343 344 346 351 358 4 9 11 12 11 12
248 247 246 245 245 247 249 249 248 247 247 248 249 251 253 254 254 256 258 260 262 264 263 262 262 263 264 264 265 265 265 263 262 264 269 273 274 274 276 279 282 286 289 291 293 291 288 290 294 297 301 303 304 309 315 320 324 327 328 330 333 336 339 341 342 345 349 354 1 9 13 15 15 15
246 246 245 244 244 245 247 248 247 246 246 247 249 250 252 253 254 256 259 260 261 262 263 263 262 262 263 264 264 264 263 262 260 260 263 265 267 271 273 276 278 280 282 285 287 285 285 288 290 292 295 294 297 305 310 314 318 322 323 325 329 332 336 340 343 347 350 352 358 7 12 15 17 18
246 245 243 243 243 244 245 246 246 245 245 247 248 250 252 254 256 258 260 261 261 261 261 260 261 262 263 263 263 263 263 263 261 260 259 261 264 267 270 273 275 277 280 283 284 282 283 285 288 290 291 290 293 301 305 309 312 316 318 320 324 329 334 340 345 349 353 356 1 7 10 12 15 18
245 243 242 242 242 242 243 243 243 243 244 245 247 249 252 255 257 257 257 258 259 260 261 261 261 261 262 262 262 262 263 263 263 262 260 260 262 264 267 269 272 276 280 281 279 278 280 283 286 287 287 287 291 295 300 303 306 310 313 315 319 324 329 337 345 351 358 4 9 10 10 13 15 15
245 242 241 241 241 241 242 242 241 241 242 243 246 248 251 253 254 254 253 253 254 256 260 262 261 260 261 262 263 263 263 264 264 265 264 263 263 264 265 266 269 273 275 273 271 272 276 280 282 282 279 279 283 289 295 297 298 303 307 309 313 317 321 329 339 349 359 8 10 10 12 16 17 16
247 244 242 241 240 240 241 241 241 240 241 242 245 246 248 249 250 250 249 249 251 254 257 259 260 260 262 263 264 265 266 268 269 269 268 266 265 264 265 266 267 269 269 268 267 269 273 276 277 273 270 272 277 284 289 290 290 295 299 302 304 307 313 320 329 341 355 2 5 9 13 17 17 17
249 248 246 243 241 240 240 241 241 240 239 240 242 244 245 246 246 246 247 248 250 252 255 257 258 260 263 265 267 268 270 271 271 270 269 268 267 267 266 266 266 266 267 266 265 265 270 274 272 264 261 266 272 278 280 279 280 284 287 291 292 294 302 310 318 332 346 353 358 6 12 16 17 17
250 251 250 247 243 240 239 239 239 239 238 239 240 242 243 243 244 244 246 247 249 251 255 257 260 262 265 267 269 270 271 270 270 271 272 273 273 272 270 267 265 265 265 263 261 262 268 271 267 258 256 260 266 272 273 269 267 270 275 280 281 282 290 301 311 326 338 346 355 4 9 13 16 18
247 249 249 248 245 242 240 239 240 241 240 239 238 238 239 240 242 243 245 247 250 253 255 257 260 262 264 265 268 270 271 272 273 274 275 277 277 276 273 267 262 262 261 258 257 261 266 267 263 256 255 260 264 266 266 260 255 258 264 267 268 271 279 291 306 321 333 340 350 359 3 8 13 16
248 250 250 250 247 244 242 241 242 242 241 239 238 237 238 239 241 243 246 248 250 252 253 254 257 260 262 264 267 270 273 275 275 275 276 278 279 277 272 264 259 258 257 255 257 262 265 263 257 252 254 260 262 259 256 252 248 249 253 253 253 260 270 281 297 314 327 339 349 356 359 3 8 10
254 251 249 249 248 245 243 243 244 244 243 241 239 239 239 240 242 244 246 247 250 252 254 255 257 260 263 265 267 269 271 272 272 273 276 279 279 276 269 263 259 259 258 259 262 265 263 256 251 249 253 258 256 250 247 247 246 243 243 243 244 250 258 268 279 293 312 331 344 351 353 356 2 6
256 252 250 249 249 248 247 246 246 246 245 244 242 241 240 241 242 245 247 249 251 253 255 256 257 259 262 263 264 266 267 267 270 272 275 276 277 275 269 263 261 261 262 264 267 266 261 254 249 248 251 255 252 248 245 244 244 241 238 239 242 246 251 257 265 274 292 315 330 341 347 350 356 1
255 252 250 249 250 251 251 250 249 249 249 247 245 244 244 243 243 245 248 249 251 253 255 256 257 258 260 260 260 261 263 265 267 271 272 272 273 273 269 264 261 261 262 265 267 266 261 255 249 245 245 244 243 243 243 240 237 237 236 237 241 245 248 250 255 264 279 296 311 330 341 344 347 352
255 252 250 250 251 252 254 255 254 254 253 252 250 249 248 247 246 246 247 249 251 253 254 256 256 257 258 258 258 259 260 263 265 267 269 270 270 271 270 264 260 260 261 262 264 264 261 255 249 244 241 238 235 236 240 239 235 235 237 237 238 242 244 246 252 259 269 280 294 313 328 334 337 343
255 253 252 252 252 254 256 258 259 258 257 255 254 253 252 250 250 249 249 250 252 253 254 255 256 255 256 257 258 258 258 260 262 264 267 268 269 268 267 263 259 257 257 258 260 260 258 253 247 243 239 236 229 226 232 238 236 234 235 235 235 237 239 243 249 256 264 273 286 299 308 316 324 332
255 254 254 254 254 256 258 260 261 260 259 257 255 254 253 252 252 251 250 250 251 253 253 254 254 254 254 256 257 257 258 260 261 262 264 266 266 263 263 262 259 256 254 255 257 257 254 248 243 240 238 233 225 220 226 233 235 236 236 233 231 233 236 241 246 254 263 272 281 289 296 304 313 321
255 255 255 256 256 257 259 261 262 262 261 258 255 254 253 252 252 251 251 251 252 253 254 254 255 255 255 256 257 258 259 261 262 263 263 264 263 260 259 260 261 259 258 256 254 254 251 245 240 237 236 233 230 231 233 232 235 239 237 231 228 231 235 240 245 250 260 270 279 286 291 297 304 311
258 258 258 258 258 258 258 259 261 262 262 260 256 253 253 253 254 254 255 255 256 256 256 258 259 258 257 257 257 258 260 262 263 264 264 262 260 258 258 259 261 262 261 258 254 253 253 250 246 243 238 234 235 238 236 231 235 238 234 230 231 232 235 240 244 250 258 266 275 283 288 293 298 303
258 259 259 259 260 260 259 258 258 259 260 259 257 255 256 257 259 260 261 262 262 262 261 260 260 259 258 258 258 259 261 263 264 264 261 259 257 256 257 258 258 257 256 255 255 255 256 255 251 244 236 231 233 235 231 230 234 235 234 237 239 238 239 243 246 251 259 265 271 279 284 287 291 296
256 257 258 259 259 261 262 261 260 259 259 259 259 258 259 260 262 264 265 265 266 265 264 261 259 258 257 258 259 261 263 265 266 265 261 259 258 256 254 254 254 253 251 251 254 258 259 255 244 234 227 226 227 228 229 232 233 230 233 242 245 242 243 248 250 253 259 265 270 276 281 285 290 295
256 256 257 258 259 260 262 262 261 260 259 258 258 259 260 261 262 262 263 264 264 265 264 263 261 260 258 259 260 262 264 266 266 264 261 258 257 256 253 251 250 250 247 246 251 255 253 240 228 224 222 221 221 223 228 234 235 232 234 243 246 245 246 250 252 255 260 264 268 273 278 281 285 287
258 258 258 259 259 260 261 261 259 258 257 256 255 256 258 259 259 260 261 262 263 263 264 265 264 262 260 260 261 262 263 264 263 261 259 257 256 255 252 249 248 245 239 238 243 245 236 220 215 217 218 217 216 217 222 229 232 232 236 241 245 247 251 253 254 258 262 265 268 272 275 276 278 280
260 259 259 259 258 258 259 259 259 259 259 257 254 253 254 254 254 254 255 257 259 261 263 264 264 263 262 263 263 263 263 264 263 262 259 255 253 251 249 246 245 244 242 240 238 232 220 213 213 214 214 215 215 216 222 228 231 232 236 241 245 249 254 258 260 264 267 269 270 271 273 274 276 278